Wind_Speed
13 12 12 12 12 11 11 11 11 11 12 12 11 10 10 10 10 9 9 10 9 9 10 10 10 11 11 12 12 12 13 13 14 15 15 15 15 15 15 16 16 17 17
13 13 12 12 12 11 11 12 12 12 12 12 11 11 11 11 10 10 10 10 9 9 10 10 10 11 11 12 12 13 13 14 15 15 16 16 16 16 16 17 17 17 18
13 13 13 13 13 12 12 13 13 13 12 12 12 12 12 12 11 11 11 11 10 10 10 11 11 12 12 13 13 13 14 15 15 16 16 17 16 17 18 18 19 19 19
15 15 15 15 14 13 13 13 13 13 13 13 12 12 12 12 12 11 11 11 11 11 12 13 13 13 13 13 14 15 15 16 17 17 17 17 17 18 19 20 20 20 20
17 16 16 16 15 15 14 14 14 14 14 13 13 13 13 12 12 12 12 12 12 12 13 14 14 14 15 15 15 16 16 17 18 18 18 18 19 20 20 21 21 21 21
16 17 17 17 17 16 15 15 15 15 14 14 14 13 13 13 13 13 13 13 13 14 14 14 15 15 15 16 16 17 17 18 18 19 19 20 20 21 22 23 23 22 22
17 17 18 18 18 18 17 16 16 16 15 15 14 14 14 14 14 14 15 16 15 15 15 16 16 16 17 17 18 18 18 19 19 20 20 21 21 22 23 24 24 24 24
19 18 18 18 18 18 17 17 17 16 16 16 15 15 15 15 15 16 16 16 17 17 17 17 18 18 19 19 19 19 20 20 21 21 21 22 23 23 24 25 25 25 26
20 20 20 19 19 19 18 18 18 17 17 16 16 16 16 16 17 17 17 17 18 18 19 19 20 20 20 20 20 20 21 21 22 22 22 23 24 25 26 26 26 27 27
21 21 21 20 20 20 19 19 18 18 18 18 18 18 17 18 18 18 19 19 19 19 19 20 20 20 20 22 22 21 22 22 23 23 24 25 26 27 27 28 28 28 28
22 22 22 22 21 20 20 20 19 19 19 19 19 19 19 19 19 19 20 20 20 20 21 21 22 22 23 23 23 24 24 24 25 26 27 28 28 29 29 29 29 29 30
23 23 23 23 22 22 21 21 21 21 20 20 20 20 20 20 20 20 21 21 22 22 23 23 24 25 25 25 25 26 26 26 27 28 29 30 30 30 30 30 31 31 31
24 24 24 24 23 22 22 23 22 22 22 21 21 21 21 21 21 22 23 23 23 24 25 26 26 26 26 27 27 27 27 28 29 30 30 31 31 31 32 32 32 32 32
25 26 26 25 24 24 24 23 23 23 23 23 22 22 22 22 23 23 24 24 25 26 26 27 27 28 28 28 28 28 29 30 31 31 31 32 32 33 33 33 33 33 34
26 26 27 27 27 26 26 25 25 25 25 24 24 23 23 24 24 25 25 26 27 27 28 28 28 28 29 29 30 30 31 32 32 32 33 33 34 34 34 34 34 35 35
28 27 27 28 28 28 28 27 27 26 26 26 26 26 26 26 27 27 27 28 29 29 29 29 29 30 30 30 31 32 33 33 34 34 34 35 35 35 35 35 35 35 35
29 28 28 28 29 29 29 29 29 28 28 28 28 28 28 28 29 29 29 30 30 30 30 30 31 31 32 32 33 34 34 34 34 35 35 36 36 36 36 36 35 36 36
30 30 29 30 30 30 30 30 30 30 30 30 30 30 30 30 31 31 31 31 31 31 31 32 33 33 33 34 34 34 34 35 35 36 36 37 37 37 36 36 36 36 36
31 31 31 32 32 32 32 32 32 32 32 32 32 32 32 32 32 32 32 32 32 32 33 33 33 34 34 34 35 35 35 35 36 37 37 38 38 38 37 37 37 37 37
32 32 32 33 33 34 34 34 34 34 33 33 33 33 32 33 33 33 33 33 33 33 34 34 34 35 35 35 36 36 36 36 37 38 38 38 38 38 37 37 37 37 37
33 34 34 35 35 35 35 36 36 35 34 34 33 33 34 34 34 34 34 33 34 34 35 35 35 36 36 36 36 37 37 37 38 39 39 38 38 38 38 38 37 37 37
33 34 34 35 35 36 36 35 35 34 34 34 34 34 34 34 34 35 35 35 35 36 36 36 36 36 37 37 37 37 37 38 39 39 39 39 38 38 38 37 37 37 38
33 34 35 35 35 35 35 35 34 34 34 35 34 35 35 35 35 35 36 36 36 36 36 36 36 36 36 36 37 37 37 38 38 39 39 39 38 38 37 37 37 38 39
34 34 35 35 35 35 35 34 34 34 35 35 36 36 36 36 36 36 36 37 37 37 37 37 37 37 37 37 37 37 38 38 38 38 39 39 38 38 37 37 37 38 39
34 35 34 34 34 34 35 34 35 35 35 36 36 36 37 37 37 37 38 38 38 38 37 37 38 38 38 37 37 38 38 39 39 39 39 38 38 38 38 38 38 39 39
34 34 34 34 34 34 34 34 35 35 36 36 37 37 38 39 39 39 39 39 39 38 38 38 39 39 39 38 38 39 39 39 39 40 40 39 39 38 38 39 39 39 39
Wind_Direction
253 251 252 254 253 255 259 264 269 273 276 277 276 273 276 277 274 274 278 283 287 290 294 299 301 303 302 301 302 306 309 311 313 314 315 315 315 314 314 315 312 309 307
252 253 252 254 256 256 257 262 267 272 276 277 274 272 273 272 270 273 278 280 284 287 292 298 302 305 307 306 306 306 309 312 315 315 316 315 315 315 315 316 315 313 311
252 255 254 255 255 257 260 262 265 269 272 273 271 270 272 271 270 272 277 275 279 286 290 294 300 306 308 307 307 308 308 312 314 315 315 313 314 315 315 315 314 314 312
251 253 254 255 254 256 260 262 265 269 271 269 271 272 274 271 270 272 275 275 277 284 290 294 298 303 306 306 306 307 308 309 310 312 312 312 313 313 314 313 314 313 312
252 252 253 253 253 255 259 261 264 268 268 266 271 271 270 270 271 272 275 277 278 282 289 292 296 301 304 304 304 304 306 307 308 309 309 310 311 312 312 312 311 312 311
254 254 254 253 254 257 260 262 265 268 267 266 269 270 268 269 269 271 273 278 280 283 288 292 295 297 299 303 304 304 305 306 307 307 308 309 310 310 311 310 310 309 308
254 254 253 254 256 258 260 263 265 265 267 267 269 269 267 268 270 272 274 277 279 282 286 291 294 296 300 301 301 302 304 305 307 307 307 308 309 309 310 310 309 308 307
253 254 255 256 258 259 261 262 263 264 265 265 267 268 267 267 269 271 273 277 277 280 284 288 292 296 300 298 300 301 302 304 305 304 306 308 309 309 309 310 309 308 306
253 254 254 256 257 259 259 258 260 262 263 264 266 268 268 268 270 272 274 277 278 279 283 287 291 295 299 298 299 301 302 303 304 304 305 307 309 309 309 309 308 307 306
254 255 254 255 257 258 257 256 258 260 262 263 265 268 270 270 271 273 274 277 279 281 283 287 290 293 296 298 298 299 301 303 304 305 305 306 308 308 308 308 307 306 305
254 256 254 255 256 256 257 256 258 260 262 264 265 267 269 270 272 274 275 276 278 280 283 287 290 292 294 296 296 298 300 301 302 304 305 306 307 307 306 307 306 305 304
254 256 256 257 257 257 256 255 258 260 262 263 265 267 269 271 272 275 277 278 279 280 283 285 289 292 292 293 295 296 298 299 301 302 304 305 305 305 306 306 306 305 304
255 256 257 257 258 258 257 256 258 260 262 262 265 267 269 271 273 274 277 280 281 282 284 286 289 291 291 292 293 295 296 298 299 301 302 303 304 303 304 304 304 304 304
256 258 257 255 256 258 259 258 258 260 262 263 264 267 270 272 274 277 278 281 282 283 285 286 288 290 292 291 292 294 295 297 299 301 302 303 303 303 303 303 303 303 304
257 258 256 255 256 258 258 258 258 259 261 263 264 266 269 272 274 276 279 281 282 284 285 286 288 290 291 291 292 293 295 296 297 299 301 302 302 302 302 303 302 302 303
258 258 257 257 256 257 258 258 258 259 261 264 266 268 269 272 274 277 280 282 283 284 285 286 288 290 291 291 292 293 294 295 296 297 299 300 301 301 302 303 303 303 303
257 257 258 258 257 257 258 259 259 260 263 265 267 268 270 273 276 279 281 283 284 285 286 287 288 290 290 290 291 292 293 293 294 296 298 299 300 300 301 302 303 304 304
257 257 258 258 257 258 259 260 260 261 263 265 268 269 271 274 277 280 282 283 284 285 287 289 290 290 291 291 291 292 292 292 293 294 296 297 299 299 300 301 302 303 304
258 257 258 259 259 259 260 260 261 263 264 266 268 270 272 274 276 279 281 282 283 285 287 288 289 290 291 291 292 293 293 293 293 294 295 297 298 298 299 300 301 302 303
259 260 260 260 260 260 261 261 261 263 265 267 268 270 271 273 276 279 281 282 283 285 286 288 288 289 291 292 293 293 294 294 295 295 296 297 298 298 299 299 300 301 302
261 261 261 262 261 261 262 262 262 263 265 266 267 269 271 273 275 278 280 282 283 285 287 288 289 290 291 292 293 293 293 294 294 295 296 296 297 297 297 298 299 300 302
261 261 261 263 263 263 263 263 262 263 264 266 268 270 272 274 275 277 280 282 283 285 287 287 288 290 291 292 292 292 292 293 294 294 295 295 295 295 296 297 298 299 301
261 261 262 264 264 263 263 262 262 262 264 266 269 271 272 274 276 277 279 281 283 284 286 287 288 290 291 291 292 292 293 294 294 294 294 294 294 294 295 296 298 299 301
261 262 263 264 264 263 263 261 261 262 265 266 269 271 272 274 277 278 279 281 282 283 285 286 287 289 290 291 292 292 293 294 294 295 295 295 295 295 295 296 298 300 301
262 263 263 263 263 262 261 261 261 263 265 267 268 270 273 275 277 278 279 281 281 282 284 286 287 288 289 290 291 292 292 293 293 294 295 294 294 295 296 298 299 300 300
263 263 263 262 262 262 262 262 262 264 266 268 270 272 274 275 277 278 279 280 282 284 284 285 286 287 287 288 290 291 292 292 292 293 294 294 294 294 296 298 299 300 300
Height
5842 5843 5843 5844 5844 5844 5845 5845 5845 5845 5845 5845 5844 5844 5844 5844 5844 5843 5843 5843 5842 5842 5841 5840 5839 5839 5838 5837 5835 5834 5833 5832 5830 5829 5827 5825 5823 5821 5819 5817 5815 5813 5811
5839 5839 5840 5841 5841 5842 5842 5842 5842 5842 5842 5842 5842 5841 5841 5841 5841 5841 5840 5840 5840 5839 5838 5838 5837 5836 5835 5834 5832 5831 5830 5828 5827 5825 5823 5821 5819 5817 5815 5813 5811 5809 5807
5836 5836 5837 5837 5838 5838 5839 5839 5839 5839 5839 5839 5839 5839 5838 5838 5838 5838 5838 5837 5837 5836 5836 5835 5834 5833 5832 5831 5829 5828 5827 5825 5824 5822 5820 5818 5816 5814 5812 5809 5807 5805 5802
5832 5833 5833 5834 5835 5835 5835 5836 5836 5836 5836 5836 5835 5835 5835 5835 5835 5835 5835 5834 5834 5833 5833 5832 5831 5830 5829 5827 5826 5825 5823 5822 5820 5818 5816 5814 5812 5809 5807 5805 5803 5800 5798
5828 5829 5830 5830 5831 5832 5832 5832 5832 5832 5832 5832 5832 5832 5831 5831 5831 5831 5831 5831 5831 5830 5829 5829 5828 5827 5825 5824 5823 5821 5819 5818 5816 5814 5812 5810 5807 5805 5803 5800 5798 5795 5793
5823 5824 5825 5826 5827 5827 5828 5828 5828 5828 5828 5828 5828 5828 5828 5828 5827 5827 5827 5827 5827 5827 5826 5825 5824 5823 5821 5820 5818 5817 5815 5813 5811 5809 5807 5805 5802 5800 5797 5795 5792 5790 5788
5819 5820 5821 5822 5822 5823 5823 5824 5824 5824 5824 5824 5824 5824 5824 5824 5824 5824 5824 5824 5823 5823 5822 5821 5820 5818 5817 5815 5814 5812 5810 5808 5806 5804 5802 5800 5797 5795 5792 5789 5786 5784 5781
5814 5815 5816 5817 5818 5818 5819 5819 5820 5820 5820 5820 5820 5820 5820 5820 5820 5820 5820 5819 5819 5818 5817 5817 5815 5814 5812 5810 5809 5807 5805 5803 5801 5799 5797 5794 5791 5788 5786 5783 5780 5777 5774
5808 5809 5811 5812 5812 5813 5814 5814 5815 5815 5816 5816 5816 5815 5815 5815 5815 5815 5815 5815 5814 5813 5813 5812 5810 5809 5807 5805 5804 5802 5800 5797 5795 5792 5790 5788 5785 5782 5779 5776 5773 5770 5767
5802 5804 5805 5806 5807 5808 5808 5809 5810 5810 5810 5811 5811 5811 5810 5810 5810 5810 5810 5809 5809 5808 5807 5806 5805 5803 5801 5799 5798 5796 5794 5792 5789 5787 5784 5781 5778 5775 5771 5768 5765 5762 5759
5796 5797 5799 5800 5801 5802 5802 5803 5804 5804 5805 5805 5806 5806 5805 5805 5805 5805 5804 5804 5803 5802 5801 5800 5799 5797 5795 5793 5792 5790 5788 5786 5783 5780 5777 5774 5771 5767 5764 5760 5757 5754 5751
5790 5791 5792 5793 5794 5795 5796 5797 5798 5799 5799 5800 5800 5800 5800 5799 5799 5799 5798 5798 5797 5796 5795 5794 5792 5791 5789 5787 5785 5783 5781 5778 5776 5773 5770 5767 5763 5760 5756 5753 5749 5746 5742
5783 5784 5786 5787 5788 5789 5790 5791 5792 5792 5793 5794 5794 5794 5794 5793 5793 5792 5792 5791 5791 5790 5788 5787 5786 5784 5782 5780 5778 5776 5773 5771 5768 5765 5762 5759 5755 5752 5748 5745 5741 5737 5733
5776 5777 5778 5780 5781 5782 5783 5784 5785 5786 5787 5787 5787 5787 5787 5787 5786 5786 5785 5784 5783 5782 5781 5779 5778 5776 5774 5772 5770 5768 5766 5763 5760 5757 5753 5750 5747 5743 5740 5736 5732 5729 5725
5768 5769 5771 5772 5773 5775 5776 5777 5778 5779 5779 5780 5780 5780 5780 5780 5779 5778 5777 5777 5776 5774 5773 5771 5770 5768 5766 5764 5762 5760 5757 5754 5751 5748 5744 5741 5738 5734 5730 5727 5723 5719 5715
5760 5761 5762 5764 5765 5767 5768 5769 5770 5771 5771 5772 5772 5772 5772 5772 5771 5770 5769 5768 5767 5766 5765 5763 5762 5760 5758 5755 5753 5751 5748 5745 5742 5739 5735 5732 5728 5725 5721 5717 5713 5709 5705
5751 5753 5754 5755 5756 5758 5759 5760 5761 5762 5763 5763 5763 5763 5764 5763 5763 5762 5761 5760 5758 5757 5756 5755 5753 5751 5748 5746 5744 5741 5738 5735 5732 5729 5726 5722 5718 5715 5711 5707 5704 5700 5696
5742 5744 5745 5746 5747 5749 5750 5751 5752 5753 5754 5755 5755 5755 5754 5754 5753 5752 5751 5750 5749 5748 5746 5745 5743 5741 5738 5736 5733 5730 5728 5725 5722 5719 5715 5712 5708 5704 5701 5697 5694 5690 5686
5733 5734 5735 5736 5738 5739 5740 5741 5742 5743 5744 5745 5745 5745 5745 5744 5744 5743 5741 5740 5739 5738 5736 5734 5732 5730 5728 5725 5723 5720 5717 5714 5711 5708 5705 5701 5698 5694 5690 5687 5684 5680 5676
5723 5724 5725 5727 5728 5729 5730 5731 5732 5733 5734 5735 5735 5735 5734 5734 5734 5733 5732 5730 5729 5728 5726 5724 5722 5719 5717 5714 5712 5709 5706 5703 5700 5697 5694 5690 5687 5683 5680 5677 5673 5670 5666
5713 5714 5715 5716 5717 5718 5719 5720 5721 5722 5723 5723 5724 5724 5724 5723 5723 5722 5721 5720 5718 5717 5715 5713 5711 5709 5706 5704 5701 5698 5695 5692 5689 5686 5683 5679 5676 5673 5670 5666 5663 5659 5656
5702 5703 5704 5705 5706 5707 5708 5709 5710 5711 5712 5712 5713 5713 5713 5712 5712 5711 5710 5709 5708 5706 5704 5702 5700 5698 5695 5692 5690 5687 5684 5681 5678 5675 5671 5668 5665 5662 5658 5655 5652 5648 5645
5692 5692 5693 5694 5694 5695 5696 5697 5699 5700 5701 5702 5702 5702 5702 5701 5701 5700 5699 5698 5696 5694 5692 5690 5688 5686 5684 5681 5678 5675 5673 5670 5667 5663 5660 5656 5653 5650 5647 5644 5641 5638 5634
5681 5681 5681 5682 5683 5684 5685 5686 5688 5689 5690 5691 5691 5691 5691 5690 5690 5689 5687 5686 5685 5683 5681 5679 5677 5675 5672 5670 5667 5664 5661 5658 5655 5652 5648 5645 5642 5639 5636 5633 5630 5627 5623
5670 5671 5671 5672 5672 5673 5674 5676 5677 5678 5679 5679 5679 5679 5679 5679 5678 5677 5676 5674 5673 5671 5669 5667 5665 5663 5660 5658 5655 5653 5650 5647 5643 5640 5637 5634 5631 5628 5625 5622 5619 5616 5612
5659 5660 5660 5661 5661 5662 5664 5665 5666 5667 5667 5668 5668 5668 5667 5667 5666 5665 5663 5662 5661 5659 5657 5655 5653 5651 5648 5646 5644 5641 5638 5635 5632 5629 5625 5622 5620 5617 5614 5611 5608 5604 5600